Tracking 19817 objects as of 19-Aug-2019
HD Live streaming from Space Station
objects crossing your sky now

THORAD DELTA 1 DEB

Track THORAD DELTA 1 DEB now!
10-day predictions


NORAD ID: 42625
Int'l Code: 1974-089GS
Perigee: 1,497.7 km
Apogee: 1,500.8 km
Inclination: 101.7 °
Period: 115.8 minutes
Semi major axis: 7870 km
RCS: Unknown
Launch date: November 15, 1974
Source: United States (US)
Launch site: AIR FORCE WESTERN TEST RANGE (AFWTR)

Note: This is SATELLITE DEBRIS
aabbcc
Your satellite tracking list
Your tracking list is empty




NASA's NSSDC Master Catalog

Two Line Element Set (TLE):
1 42625U 74089GS  19230.41884098 +.00000039 +00000-0 +59418-3 0  9996
2 42625 101.7249 212.6429 0001963 237.0255 281.3892 12.43432223261822
Source of the keplerian elements: AFSPC